Flag for U.S.A. Weather past 2 weeks in Santa Fe, New Mexico, U.S.A.

Now
66 °F

Sunny.


Feels Like: 66 °F
Forecast: 35 / 65 °F
Wind: No wind

Location: Santa Fe County Municipal Airport

Current Time: Mar 27, 2015 at 3:37:14 PM

Latest Report: Mar 27, 2015 at 2:53 PM


Visibility: 10 mi

Pressure: 30.06 "Hg

Humidity: 16%

Dew point: 18 °F

Location of Santa FeLocation

Historic Weather in Santa Fe — Graph

°F

Santa Fe temperature yesterday

Maximum temperature yesterday: 60 °F (at 4:53 PM)
Minimum temperature yesterday: 25 °F (at 5:53 AM)
Average temperature yesterday: 43 °F

Past Weeks' High & Low Weather Summary

 TemperatureHumidityPressure
High70 °F (Mar 16, 4:53 PM)97% (Mar 19, 6:53 AM)30.37 "Hg (Mar 19, 6:53 AM)
Low25 °F (Mar 26, 5:53 AM)5% (Mar 15, 5:53 PM)29.72 "Hg (Mar 18, 4:53 PM)
Average48 °F47%30.05 "Hg
* Reported Mar 12 1:53 PM — Mar 27 1:53 PM, Santa Fe, Weather by CustomWeather, © 2015

Note: Actual official high and low records may vary slightly from our data, if they occured in-between our weather recording intervals... More about our weather records

Advertising

Santa Fe weather history for previous 24 hours

 ConditionsComfort  
Time TempWeatherWind HumidityBarometerVisibility
1:53 PM
Fri, Mar 27
66 °FSunny.13 mph15%30.09 "Hg10 mi
12:53 PM64 °FSunny.6 mph15%30.12 "Hg10 mi
11:53 AM63 °FSunny.9 mph16%30.14 "Hg10 mi
10:53 AM60 °FSunny.13 mph19%30.16 "Hg10 mi
9:53 AM55 °FSunny.10 mph24%30.16 "Hg10 mi
8:53 AM49 °FSunny.9 mph29%30.17 "Hg10 mi
7:53 AM37 °FClear.8 mph46%30.20 "Hg10 mi
6:53 AM38 °FClear.5 mph41%30.16 "Hg10 mi
5:53 AM35 °FClear.12 mph50%30.13 "Hg10 mi
4:53 AM37 °FClear.No wind42%30.12 "Hg10 mi
3:53 AM36 °FClear.3 mph44%30.13 "Hg10 mi
2:53 AM33 °FClear.N/A52%30.14 "Hg10 mi
1:53 AM34 °FClear.5 mph50%30.16 "Hg10 mi
12:53 AM36 °FClear.5 mph48%30.17 "Hg10 mi
11:53 PM
Thu, Mar 26
40 °FClear.No wind35%30.16 "Hg10 mi
10:53 PM42 °FClear.7 mph35%30.16 "Hg10 mi
9:53 PM49 °FClear.8 mph21%30.13 "Hg10 mi
8:53 PM50 °FClear.8 mph19%30.12 "Hg10 mi
7:53 PM53 °FSunny.9 mph16%30.11 "Hg10 mi
6:53 PM58 °FSunny.6 mph17%30.11 "Hg10 mi
5:53 PM60 °FSunny.13 mph14%30.10 "Hg10 mi
4:53 PM60 °FSunny.12 mph16%30.10 "Hg10 mi
3:53 PM58 °FSunny.N/A17%30.12 "Hg10 mi
Weather by CustomWeather, © 2015

See weather overviewHow to use our weather pages